#timestamp,LO_Frequency,Hit,StdDev 
1542783615.4,286046995.1,N
1542783635.3,286046995.7,N
1542783655.1,286046995.9,N
1542783656.0,286046995.9,N
1542783675.8,286046994.9,N
1542783695.7,286046997.9,N
1542783715.5,286046996.4,N
1542783735.4,286046994.7,N
1542783755.2,286046991.8,Y
1542783775.0,286046993.8,P
1542783775.9,286046993.8,N
1542783795.8,286046996.3,N
1542783815.6,286046996.3,N
1542783835.5,286046994.0,Y
1542783855.3,286046996.7,P
1542783875.1,286046999.3,N
1542783895.9,286046999.1,N
1542783915.7,286046999.1,N
1542783935.5,286046997.4,N
1542783955.4,286046997.5,N
1542783975.2,286046996.8,N
1542783995.1,286046996.9,N
1542783996.0,286046996.9,N
1542784015.8,286046997.5,N
1542784035.6,286046994.9,Y
1542784055.5,286046998.8,P
1542784075.3,286046996.8,P
1542784095.2,286046997.1,P
1542784115.9,286046995.3,Y
1542784135.7,286047000.7,P
1542784155.6,286047000.9,N
1542784175.4,286046998.1,N
1542784195.3,286047000.4,N
1542784215.1,286046999.0,N
1542784216.0,286046999.0,N
1542784235.8,286046998.9,N
1542784255.7,286046998.6,N
1542784275.5,286046998.2,N
1542784295.3,286046998.3,N
1542784315.2,286046998.7,N
1542784335.0,286046999.3,N
1542784335.9,286046999.3,N
1542784355.8,286046997.3,N
1542784375.6,286046997.5,N
1542784395.4,286046997.7,N
1542784415.3,286046997.5,N
1542784435.1,286046995.2,Y
1542784455.8,286046999.2,P
1542784475.7,286046997.0,P
1542784495.5,286046997.9,N
1542784515.4,286046997.9,N
1542784535.2,286046999.3,N
1542784555.0,286047001.2,N
1542784555.9,286047001.2,N
1542784575.8,286047000.4,N
1542784595.6,286046999.6,N
1542784615.4,286046997.3,N
1542784635.3,286046996.8,N
1542784655.1,286046995.6,N
1542784675.9,286046996.1,N
1542784695.7,286046995.2,N
1542784715.5,286046993.7,Y
1542784735.4,286046997.9,P
1542784755.2,286046994.9,P
1542784775.0,286046995.4,P
1542784776.0,286046995.4,Y
1542784795.8,286046998.4,P
1542784815.6,286046998.6,N
1542784835.5,286046999.4,N
1542784855.3,286046996.7,Y
1542784875.1,286046999.3,P
1542784895.9,286046999.2,N
1542784915.7,286046998.2,P
1542784935.6,286046998.3,Y
1542784955.4,286046998.9,P
1542784975.2,286047001.1,P
1542784995.1,286047000.7,N
1542784996.0,286047000.7,N
1542785015.8,286046999.9,N
1542785035.7,286047001.0,N
1542785055.5,286046998.5,N
1542785075.3,286046998.2,N
1542785095.2,286046999.6,N
1542785115.0,286046996.6,Y
1542785115.9,286046996.6,P
1542785135.8,286046997.0,N
1542785155.6,286046998.4,N
1542785175.4,286046998.4,N
1542785195.3,286047001.1,N
1542785215.1,286046998.5,N
1542785235.8,286046998.8,N
1542785255.7,286046998.7,N
1542785275.5,286046999.5,N
1542785295.4,286046996.6,N
1542785315.2,286046999.5,N
1542785335.0,286046999.5,N
1542785335.9,286046999.5,N
1542785355.8,286047000.7,N
1542785375.6,286046998.6,N
1542785395.4,286046999.3,N
1542785415.3,286046999.4,N
1542785435.1,286046998.1,N
1542785455.9,286046999.2,N
1542785475.7,286046996.5,Y
1542785495.5,286047000.8,P
1542785515.4,286047000.8,N
1542785535.2,286046998.5,N
1542785555.1,286047001.1,N
1542785556.0,286047001.1,N
1542785575.8,286046998.2,N
1542785595.6,286047001.2,N
1542785615.5,286047001.0,N
1542785635.3,286047002.0,N
1542785655.1,286047001.8,N
1542785675.9,286047001.7,N
1542785695.7,286047002.0,N
1542785715.6,286047000.2,N
1542785735.4,286046999.8,N
1542785755.2,286047000.6,N
1542785775.1,286046999.9,N
1542785776.0,286046999.9,N
1542785795.8,286046999.9,N
1542785815.6,286047000.1,N
1542785835.5,286046999.7,N
1542785855.3,286046999.9,N
1542785875.2,286047001.6,N
1542785895.9,286047001.9,N
1542785915.7,286047001.7,N
1542785935.6,286047003.9,Y
1542785955.4,286047003.9,P
1542785975.2,286047003.3,N
1542785995.1,286047004.4,P
1542785996.0,286047004.4,N
1542786015.8,286047004.0,N
1542786035.7,286047003.8,N
1542786055.5,286047003.2,N
1542786075.3,286047003.0,N
1542786095.2,286047006.0,Y
1542786115.0,286047002.5,P
1542786115.9,286047002.5,P
1542786135.8,286047001.4,P
1542786155.6,286047004.4,Y
1542786175.4,286047002.6,P
1542786195.3,286047002.7,P
1542786215.1,286047000.0,N
1542786235.8,286047000.5,N
1542786255.7,286047002.7,N
1542786275.5,286047002.8,N
1542786295.4,286047002.4,N
1542786315.2,286047001.0,N
1542786335.0,286046998.3,N
1542786335.9,286046998.3,N
1542786355.8,286047002.1,N
1542786375.6,286047004.1,N
1542786395.4,286047000.1,N
1542786415.3,286046999.8,N
1542786435.1,286047002.2,N
1542786455.9,286046999.7,N
1542786475.7,286047002.6,N
1542786495.5,286047004.3,N
1542786515.4,286047001.7,N
1542786535.2,286047003.7,N
1542786555.0,286047003.7,N
1542786555.9,286047003.7,N
1542786575.8,286047003.3,N
1542786595.6,286047005.6,Y
1542786615.5,286047001.8,P
1542786635.3,286047004.4,P
1542786655.1,286047003.9,P
1542786675.9,286047001.4,N
1542786695.7,286047001.3,N
1542786715.5,286047003.7,N
1542786735.4,286047002.2,N
1542786755.2,286047001.5,N
1542786775.1,286047001.5,N
1542786776.0,286047001.5,N
1542786795.8,286047004.1,Y
1542786815.6,286047002.2,P
1542786835.5,286047001.6,P
1542786855.3,286047005.7,P
1542786875.2,286047004.9,Y
1542786895.9,286047001.4,P
1542786915.7,286047003.0,P
1542786935.6,286047005.5,P
1542786955.4,286047004.1,N
1542786975.2,286047007.2,Y
1542786995.1,286047002.1,P
1542786996.0,286047002.1,P
1542787015.8,286047000.4,N
1542787035.7,286047000.5,N
1542787055.5,286046999.7,N
1542787075.3,286047000.6,N
1542787095.2,286046998.8,N
1542787115.0,286047000.7,N
1542787115.9,286047000.7,N
1542787135.8,286047000.7,N
1542787155.6,286046998.4,N
1542787175.4,286047001.1,N
1542787195.3,286047000.5,N
